ONEWEB-0038, 45145

Orbit data source: Space-Track

ONEWEB-0038, 45145 is a payload satellite owned by One Web (UK) in LEO that was launched on Thu, 06 Feb 2020 UTC via a SOYUZ-2-1B launch vehicle from the Tyuratam Missile And Space Complex (TTMTR). Payload-class satellites include a variety of spacecraft equipped with specific instruments for various scientific and technological missions. These include communications satellites like Starlink; space stations such as the ISS; scientific satellites like the Hubble; Earth observation satellites from companies like Planet Labs, Umbra, and HawkEye 360; GPS; miniature CubeSats for education and research; and military/defense satellites.

Loading next visibility...
Identifier
45145, 2020-008Q
Orbit
LEO
Country
Flag of UKUK
Related business
Manufacturer
One Web
Mission
Operational Commercial Communications
Bus & Motor
ARROW, Unknown motor
Mass
148 kg wet, ~140 kg dry
Launch date (UTC)
2020-02-06 (6 years ago)
Launch vehicle
SOYUZ-2-1B
Launch site
Tyuratam Missile And Space Complex (TTMTR)
Object type
Payload
Rocket body
Debris
Shape & HBR
Trap Box + 2 Pan, 6.7 m
Radar Cross Section
3.464 m², Large (>1 m²)

Expand to show TLE details & history
Last TLE update: 8 hours ago

TLE from 8 hours ago
0 ONEWEB-0038
1 45145U 20008Q   25343.18990873 -.00000881  00000-0 -25213-2 0  9995
2 45145  87.8866  58.8962 0003287  84.7907 275.3596 13.11423541285420
Epoch: 2025-12-09T04:33Z
TLE epoch observation values (Epoch: 2025-12-09T04:33:28.114Z)
Latitude
-0.00001°
Longitude
-87.64909°
Altitude
1,220.314 km
Speed
7.244 km/s
True Right ascension
03h 55m 35s
True Declination
0° 00' 00"
Sunlit
Object was in full shadow at epoch
Visualization orbit readout
Latitude
Unknown
Longitude
Unknown
Altitude
Unknown
Speed
Unknown
Apparent Right ascension
Unknown
Apparent Declination
Unknown
Sunlit
N/A
Visualization observer readout
Local Sidereal Time
11:06:17
Azimuth
Unknown
Elevation
Unknown
Doppler factor
Unknown
Orbital elements
Apogee altitude
1,217.271 km
Perigee altitude
1,212.28 km
Semi-major axis
7,592.912 km
Eccentricity
0.00033
Inclination
87.8866°
RAAN
58.8962°
Arg. of periapsis
84.7907°
True anomaly
275.3221°
Mean anomaly
275.3596°
Eccentric anomaly
275.34085°
Mean motion
3.28043 °/min
Orbital period
109.74 mins
BSTAR
-0.0025213
Loading maneuver chart data...
Computing Atmospheric mass density...
Loading historical data...
Loading historical data...
Loading historical data...
Loading historical data...
Loading historical data...
Loading historical data...
Loading historical data...

Documentation

Showing up to 5 results
|